Время (UTC), дата Ветер
(°,м/с) 
Видим.   Явления Облачность Т
(°С)
Тd
(°С)
f(%) Тe
(°С)
Pmin
(гПа)
dP
(гПа)
Po
(мм)
O2
(г/м3)
Тmin Tmax R s Состояние
почвы
00 01.02.13 200 (Ю) 4000 м  дымка{туман}  10/10 750 м 
[Sc]
+0.8 +0.5 98 1010.1  -0.4  716  288           
03 01.02.13 260 (З) >10 км    10/6 600 м средняя 
[Sc|Ac und]
+1 -0.5 90 1009.6  -0.5  716  287  +0.2         
06 01.02.13 280 (З) >10 км    10/5 1000 м средняя 
[Sc|Ac und]
+1.6 -0.1 88 +1  1010.3  0.8  717  287           
09 01.02.13 230 (ЮЗ) >10 км    10/4 1000 м средняя 
[Sc|Ac und]
+4.5 -1.1 67 +3  1009.2  -0.5  716  284           
12 01.02.13 260 (З) >10 км    10/0 средняя 
[Ac und]
+5 -3.3 55 +3  1009.1  716  284           
15 01.02.13 180 (Ю) >10 км    10/4 1000 м средняя 
[Sc|Ac und]
+3.1 -2 69 +3  1010.3  0.8  717  286    +5.3       
18 01.02.13 180 (Ю) 10 км  слаб. ливневой дождь  10/8 330 м кучево-дожд., средняя 
[Cb cap|Ac und]
+2.2 -0.5 82 +2  1010.6  0.1  717  287           
21 01.02.13 270 (З) >10 км  {ливн. осадки}  10/5 600 м кучево-дожд., средняя 
[Cb calv|Ac und]
+1.4 -0 90 +2  1010.6  -0.1  717  287           
00 02.02.13 300 (СЗ) >10 км  {ливн. осадки}  10/6 840 м кучево-дожд., средняя 
[Cb calv|Ac und]
+1.4 -0.2 89 +2  1010.9  0.3  717  287           
03 02.02.13 310 (СЗ) >10 км    10/8 300 м кучево-дожд., средняя 
[Cb calv|Ac und]
+1.3 +0 91 +1  1011.7  0.7  718  288  +0.8    0.3    влажная 
06 02.02.13 260 (З) >10 км  {ливн. осадки}  10/5 600 м кучево-дожд., средняя 
[Cb calv|Ac und]
+1.9 +0.8 92 +1  1013.2  1.5  719  287           
09 02.02.13 310 (СЗ) >10 км    9/3 1000 м кучево-дожд., средняя, верхняя 
[Cb calv|Ac trans|Ci fib]
+5.8 -0.9 62 +6  1013.2  0.7  719  284           
12 02.02.13 340 (С) >10 км    8/3 600 м кучево-дожд., средняя 
[Cb calv|Ac trans]
+5.9 -1.3 60 +5  1014.6  1.4  720  284           
15 02.02.13 090 (В) >10 км    8/3 1000 м средняя, верхняя 
[Sc|Ac trans|Ci fib]
+2.5 -1.4 75 +2  1017.2  1.7  722  288    +7  0.0     
18 02.02.13 170 (Ю) >10 км    10/4 1000 м средняя 
[Sc|Ac und]
+2.7 -1 77 +1  1019.1  1.9  723  289           
21 02.02.13 350 (С) >10 км    3/0 средняя 
[Ac trans]
+1.2 -1.3 83 +1  1020.1  0.6  724  290           
00 03.02.13 140 (ЮВ) >10 км    ясно 
-0.3 -1.8 89 -2  1020.8  0.3  724  292           
03 03.02.13 130 (ЮВ) >10 км    ясно 
-2.3 -3.2 94 -3  1021.3  -0.1  724  294  -2.3        замёрзшая 
06 03.02.13 120 (ЮВ) >10 км    5/0 средняя 
[Ac trans]
-1.5 -2.5 93 -3  1021.1  724  293           
09 03.02.13 110 (В) >10 км    8/0 средняя 
[Ac trans]
+3.3 -1.3 72 1019.7  -0.3  724  288           
12 03.02.13 140 (ЮВ) >10 км    8/0 верхняя 
[Ci fib]
+7.2 -1.5 54 +5  1018.1  -0.8  723  284           
15 03.02.13 140 (ЮВ) >10 км    8/0 
+1.4 -2.5 75 -1  1019.8  0.5  723  290    +7.5       
18 03.02.13 150 (ЮВ) >10 км    9/0 верхняя 
[Ci fib]
+0.4 -3.1 77 -2  1019.7  -0.3  723  291           
21 03.02.13 140 (ЮВ) >10 км    9/0 верхняя 
[St|Cs]
+1.4 -2.5 75 -1    -0.4             
00 04.02.13 200 (Ю) >10 км    9/0 средняя 
[Ac trans]
+4 -6.4 47 +3  1018.4  -0.2  723  288           
03 04.02.13 200 (Ю) >10 км    9/0 средняя 
[Ac trans]
+7.4 -12.3 23 +7  1017.4  -0.4  722  284  -0.2         
06 04.02.13 190 (Ю) >10 км    9/0 средняя 
[Ac trans]
+9.7 -10.1 24 +9  1016.8  -0.1  722  282           
09 04.02.13 160 (Ю) >10 км    9/0 средняя, верхняя 
[Ac trans|Ci fib]
+15.8 -8.5 18 +16  1015.1  -0.6  722  276           
12 04.02.13 270 (З) >10 км    8/0 средняя, верхняя 
[Ac trans|Ci fib]
+16.7 -2.1 28 +17  1014.8  722  274           
15 04.02.13 230 (ЮЗ) >10 км    9/0 средняя, верхняя 
[Ac trans|Ci fib]
+11.2 -0.3 45 +11  1016.8  0.9  723  280    +17.6       
18 04.02.13 270 (З) >10 км    9/0 средняя 
[Ac trans]
+11.3 +2 53 +10  1016.2  -0.5  722  279           
21 04.02.13 270 (З) >10 км    9/0 средняя 
[Ac trans]
+10.3 +2.4 58 +10  1015.9  -0.4  722  280           
00 05.02.13 030 (СВ) >10 км    3/0 средняя 
[Ac trans]
+3.8 +3 95 +3  1015.4  -1.6  721  286           
03 05.02.13 080 (В) 10 км  местами туман поземный  4/0 средняя 
[Ac trans]
+2.2 +1.8 97 +2  1014  -1.7  719  287  +2.2         
06 05.02.13 320 (СЗ) 10 км    8/0 средняя, верхняя 
[Ac trans|Ci fib]
+2.5 +1.8 95 1013.8  -0.2  719  287  +1.5         
09 05.02.13 340 (С) 10 км    10/6 150 м средняя 
[St|Ac und]
+3.6 +2 89 +2  1015.6  1.9  721  286           
12 05.02.13 250 (З) >10 км  в посл. час дождь  9/8 360 м кучево-дожд., средняя 
[Cb calv|Ac trans]
+4.6 +3.2 91 +3  1015.8  0.5  721  285           
15 05.02.13 280 (З) 7-11{16}  >10 км    4/3 400 м кучево-дожд., средняя 
[Cb calv|Ac trans]
+4.3 +2.5 88 +1  1017.3  1.3  722  286    +6.4  0.8     
18 05.02.13 290 (З) 5{14}  >10 км    3/3 600 м 
[Sc diur, vesp]
+1.8 +0 88 -1  1020.8  2.8  724  290           
21 05.02.13 250 (З) 1{10}  >10 км    4/4 200 м 
[St]
+0 -0.9 94 +1  1023.1  1.8  725  292           
00 06.02.13 190 (Ю) >10 км    3/0 средняя 
[Ac trans]
-1.5 -2 96 -3  1022.8  -0.7  725  294           
03 06.02.13 160 (Ю) >10 км    3/0 средняя 
[Ac trans]
-1.2 -2.7 90 -3  1021.6  -1.1  724  293  -2.6        замёрзшая 
06 06.02.13 120 (ЮВ) >10 км    4/3 300 м средняя 
[St|Ac trans]
+0.1 -1 92 -2  1021.1  -0.2  724  292  -3.2         
09 06.02.13 130 (ЮВ) 8-11{11}  >10 км    10/6 300 м верхняя 
[St|Ci sp]
+5.5 +3 84 +2  1018.3  -1.5  723  285           
12 06.02.13 110 (В) 8-10{13}  >10 км    10/3 300 м средняя, верхняя 
[St|Ac As|Ci]
+5.7 +2.3 79 +3  1016  2.2  721  284           
15 06.02.13 120 (ЮВ) >10 км    10/8 330 м средняя 
[St|Ac und]
+3 +1.7 91 1016.4  -0.1  721  287    +6       
18 06.02.13 110 (В) 8-10{12}  10 км    10/10 100 м 
[St]
+1.1 +0.5 96 -3  1016.2  -0.6  721  289           
21 06.02.13 130 (ЮВ) 6{10}  0700 м  туман  ?/?  
+0.3 -0.1 97 -3  1015.5  -0.8  720  290           
00 07.02.13 130 (ЮВ) 7{11}  0300 м  туман  ?/?  
-0.4 -0.6 99 -4  1015.4  -0.3  720  290           
03 07.02.13 130 (ЮВ) 0300 м  туман  ?/?  
-0.2 -0.5 98 -4  1015.7  0.4  720  290  -0.4        влажная 
06 07.02.13 130 (ЮВ) 7-10  4000 м  дымка{туман}  10/10 60 м 
[St]
+0.4 +0.1 98 -3  1016.5  0.8  721  290           
09 07.02.13 120 (ЮВ) 6{10}  >10 км    8/5 270 м 
[St]
+4.3 +0.8 78 +2  1016  0.3  721  286           
12 07.02.13 120 (ЮВ) >10 км    8/3 600 м средняя 
[Sc|Ac trans]
+6.2 +0.9 69 +4  1016.4  0.8  722  284           
15 07.02.13 120 (ЮВ) >10 км    3/0 средняя 
[Ac trans]
+1.4 -0.1 90 -1  1019.2  1.7  723  290    +6.3       
18 07.02.13 130 (ЮВ) 10 км    5/5 300 м 
[St]
-0.7 -1.1 97 -4  1020.8  1.1  724  292           
21 07.02.13 120 (ЮВ) 4000 м  дымка  3/3 200 м 
[St]
-1.3 -1.6 98 -3  1020.6  -0.3  724  293           
00 08.02.13 110 (В) 10 км    ясно 
-1.7 -2 98 -4  1020.2  -0.5  723  293           
03 08.02.13 110 (В) 0100 м  переохл. туман  ?/?  
-2.2 -2.6 97 -4  1020.5  0.2  723  294  -2.8        замёрзшая 
06 08.02.13 110 (В) 0100 м  туман [диам. сложн. отлож. 3 мм]  ?/?  
-0.8 -1.1 98 -3  1021.2  0.9  724  293           
09 08.02.13 120 (ЮВ) >10 км  {туман} [диам. сложн. отлож. 3 мм]  1/1 300 м 
[St]
+5.6 +1 72 +3  1019.6  -0.3  724  286           
12 08.02.13 110 (В) 6{10}  >10 км  {туман}  ясно 
+8.4 +0.2 56 +7  1018.4  -0.5  723  283           
15 08.02.13 110 (В) 6{10}  >10 км    3/0 средняя 
[Ac trans]
+1.7 -1.5 79 -1  1020.2  0.4  724  290    +9.5       
18 08.02.13 120 (ЮВ) 0100 м  туман  ?/?  
-0.7 -1 98 -4  1020.3  -0.4  723  292           
21 08.02.13 110 (В) 8-10{10}  0100 м  туман  ?/?  
-1 -1.3 98 -5  1019  -1.3  722  292           
00 09.02.13 110 (В) 7{10}  0100 м  туман [диам. гололёда 2 мм]  ?/?  
-1.3 -1.6 98 -5  1017.5  -1.5  721  292           
03 09.02.13 150 (ЮВ) 0100 м  туман  ?/?  
-1.2 -1.5 98 -5  1017.6  0.2  721  292  -1.4         
06 09.02.13 130 (ЮВ) 7-10{10}  0100 м  туман  ?/?  
-1.5 -1.8 98 -6  1019  1.3  722  293  -1.6         
09 09.02.13 130 (ЮВ) 7-10{10}  0100 м  туман  ?/?  
-1.5 -1.8 98 -6  1019  1.3  722  293  -1.6         
12 09.02.13 110 (В) >10 км  {туман}  3/0 средняя 
[Ac trans]
+7.6 +0.1 59 +6  1017.4  0.2  722  283           
15 09.02.13 120 (ЮВ) >10 км    3/0 верхняя 
[Ci fib]
+2 -1.1 80 -1  1019.9  1.3  724  289    +7.7       
18 09.02.13 120 (ЮВ) >10 км    3/0 верхняя 
[Ci fib]
-0.7 -1.9 92 -3  1021.7  1.1  724  293           
21 09.02.13 110 (В) >10 км    3/0 верхняя 
[Ci fib]
-0.7 -2.3 89 1022  0.3  725  293           
00 10.02.13 210 (ЮЗ) >10 км    3/0 верхняя 
[Ci fib]
+0.3 -2 84 +1  1022.1  0.3  725  292           
03 10.02.13 060 (СВ) >10 км    3/0 верхняя 
[Ci fib]
-0.1 -2.4 84 +1  1022.9  0.7  725  293  -1.3        замёрзшая 
09 10.02.13 000 (С) 61  >10 км    1/0 верхняя 
[Ci fib]
+0.7   1020.8  -0.9  725             
12 10.02.13 080 (В) >10 км    10/0 средняя, верхняя 
[Ac As|Ci]
+7.6 +1.5 65 +6  1019.3  -1.1  724  283           
15 10.02.13 100 (В) >10 км    8/0 средняя, верхняя 
[Ac trans|Ci fib]
+1.2 +0.2 93 -2  1020.2  -0.4  724  290    +8.5       
18 10.02.13 120 (ЮВ) 0200 м  туман  ?/?  
+0.7 +0.4 98 -2  1019.6  -0.7  723  290           
21 10.02.13 120 (ЮВ) 0200 м  туман  ?/?  
+0.2 -0.1 98 -3  1018.9  -0.8  722  291           
00 11.02.13 120 (ЮВ) 0900 м  туман  ?/?  
+0.3 -0 98 -3  1017.6  -1.1  722  290           
03 11.02.13 130 (ЮВ) 4000 м  дымка{туман}  10/10 100 м 
[St]
+1 +0.7 98 -2  1016  -1.4  721  289  -0         
06 11.02.13 110 (В) 4000 м  дымка{туман}  10/10 100 м 
[St]
+1.8 +1.3 97 -1  1015.1  -0.7  720  288           
09 11.02.13 110 (В) 10 км    10/10 180 м 
[St]
+3 +1.5 90 1013.4  -1.4  719  286           
12 11.02.13 100 (В) >10 км    10/6 300 м средняя 
[St|Ac und]
+4.4 +1.5 81 +2  1011.7  -1.3  718  284           
15 11.02.13 120 (ЮВ) >10 км    10/6 330 м средняя 
[St|Ac und]
+2.8 +0.7 86 1011.9  0.1  718  286    +4.4       
18 11.02.13 140 (ЮВ) >10 км    10/8 180 м средняя 
[St|Ac As]
+1.9 +0.6 91 -1  1011.9  -0.2  718  287           
21 11.02.13 110 (В) 1100 м  дымка  10/10 60 м 
[St]
+0.3 -0.2 96 -1  1011.9  -0.3  718  289           
00 12.02.13 140 (ЮВ) 1100 м  дымка  10/10 60 м 
[St]
+0.6 +0.2 97 -2  1012.1  0.2  718  288           
03 12.02.13 140 (ЮВ) 0200 м  туман  ?/?  
-0.2 -0.5 98 -3  1012.8  0.5  718  290  -0.2        влажная 
06 12.02.13 120 (ЮВ) 0200 м  туман  ?/?  
-0.1 -0.3 99 -2  1014.6  1.8  719  290  -0.6         
09 12.02.13 110 (В) 4000 м  дымка{туман}  9/4 200 м средняя 
[St|Ac trans]
+3.8 +0.8 81 +5  1015.6  1.6  721  286           
12 12.02.13 110 (В) 4000 м  дымка{туман}  9/4 200 м средняя 
[St|Ac trans]
+3.8 +0.8 81 +5  1015.6  1.6  721  286           
15 12.02.13 350 (С) 10 км    10/3 600 м средняя 
[Sc|Ac As]
+4.9 +1.5 79 +5  1019.4  2.3  724  286    +8.2       
18 12.02.13 100 (В) >10 км    10/0 средняя 
[Ac und]
+2.5 +1.4 92 +3  1021.8  1.8  725  289           
21 12.02.13 130 (ЮВ) >10 км    10/6 540 м средняя 
[Sc|Ac As]
+2.1 +1.5 96 +1  1022.9  0.9  726  290           
00 13.02.13 290 (З) >10 км    10/6 300 м средняя 
[St|Ac und]
+4.7 +3.2 90 +3  1023.6  1.2  727  287    -0.4       
03 13.02.13 280 (З) 10 км    10/10 100 м 
[St]
+3.2 +2.5 95 +1  1024.9  727  289  +1.8        влажная 
06 13.02.13 240 (ЮЗ) 10 км    10/10 210 м 
[St]
+2.8 +1.6 92 +2  1026.6  1.5  728  290           
09 13.02.13 330 (СЗ) >10 км    8/1 300 м средняя 
[Sc|Ac trans]
+5.9 +1.8 75 +4  1025.5  -0.5  728  287           
12 13.02.13 310 (СЗ) >10 км    10/3 600 м средняя 
[Sc|Ac und]
+6.3 +1.2 70 +6  1026.2  0.8  729  287           
15 13.02.13 130 (ЮВ) >10 км    10/8 1050 м средняя 
[Sc|Ac und]
+4.9 +1.7 80 +5  1027.2  0.6  729  288    +7.2       
18 13.02.13 180 (Ю) >10 км    3/0 средняя 
[Ac trans]
+1.9 -0.1 87 1027.7  0.1  729  292           
21 13.02.13 170 (Ю) >10 км    3/0 средняя 
[Ac trans]
+2.3 +0.3 87 +2  1027.5  -0.2  729  291           
00 14.02.13 180 (Ю) >10 км    ясно 
+1.1 +0.2 94 1027.6  0.1  729  292           
03 14.02.13 130 (ЮВ) 0500 м  туман  ясно 
+0 -0.3 98 -2  1027.5  -0.3  729  294  -0.6        замёрзшая 
06 14.02.13 110 (В) 4000 м  дымка{туман}  9/9 120 м 
[St]
+2.3 +2 98 1027  729  291           
09 14.02.13 120 (ЮВ) >10 км    9/9 360 м 
[St]
+5.3 +1.9 79 +3  1025.2  -1.2  728  287           
12 14.02.13 100 (В) 8-10{11}  >10 км    8/8 480 м 
[Sc]
+6.1 +1.7 73 +3  1023.1  -1.8  726  286           
15 14.02.13 110 (В) >10 км    10/10 240 м 
[St]
+2.4 +0.6 88 -1  1022.8  -1  726  290    +6.8       
18 14.02.13 110 (В) 9-12  4000 м  дымка  10/10 100 м 
[St]
+1 +0.5 96 -3  1021.2  -1.7  724  291           
21 14.02.13 110 (В) 8-11{13}  10 км    10/10 150 м 
[Sc]
+1.1 +0.2 94 -3  1019  -2  723  290           
00 15.02.13 110 (В) 9-13{13}  10 км    10/10 120 м 
[St]
-0.2 -1 94 -5  1016.5  -2.7  721  291           
03 15.02.13 110 (В) 1200 м  дымка{ливн. осадки}  10/10 50 м 
[St]
+0.4 +0.1 98 -4  1014.8  -1.4  720  289  -0.3         
06 15.02.13 100 (В) 0800 м  морось{туман}  ?/?  
+0.6 +0.2 97 -3  1013.5  -1.2  719  289           
09 15.02.13 110 (В) 4{10}  >10 км  {морось, туман}  10/10 180 м 
[St]
+1.8 +1.1 95 1012.6  -0.6  718  287           
12 15.02.13 070 (В) >10 км  {морось, туман}  10/6 330 м верхняя 
[Sc|Ci]
+4.4 +0.7 77 +3  1010.3  -1.7  717  284           
15 15.02.13 080 (В) >10 км    10/3 300 м средняя, верхняя 
[St|Ac trans|Ci]
-0.5 -1.8 91 -2  1010.7  -0.6  717  289    +4.4  0.0     
18 15.02.13 150 (ЮВ) >10 км    8/0 средняя 
[Ac trans]
+0 -0.6 96 -1  1009.9  -0.6  716  289           
21 15.02.13 130 (ЮВ) >10 км    4/0 средняя 
[Ac As]
+0.1 -0.5 96 +1  1008.8  -1  715  288           
00 16.02.13 тихо ()   >10 км    4/0 средняя 
[Ac trans]
-0.9 -1.3 97 -1  1009.3  0.2  716  289           
03 16.02.13 020 (С) >10 км    6/0 средняя 
[Ac trans]
-0.1 -0.7 96 +1  1009.1  716  288  -1.7        замёрзшая 
06 16.02.13 120 (ЮВ) 2000 м  дымка  10/0 средняя 
[Ac und]
+0.1 -0.5 96 -2  1010.5  1.4  717  289  +0.1         
09 16.02.13 290 (З) >10 км    9/3 1000 м средняя 
[Sc|Ac trans]
+6.8 +1.7 70 +7  1009.6  0.4  717  281           
12 16.02.13 310 (СЗ) >10 км  слаб. ливневой дождь  10/6 1000 м кучево-дожд., средняя 
[Cb calv|Ac und]
+4.3 +2.8 90 +5  1010.5  0.4  717  284           
15 16.02.13 300 (СЗ) 0500 м  туман{ливн. осадки}  ?/?  
+2.1 +1.5 96 +1  1012.1  1.1  718  287    +6.8  0.0     
18 16.02.13 300 (СЗ) 0200 м    ?/?  
+1.6 +1.2 97 +1  1013.2  0.9  719  288           
21 16.02.13 270 (З) 1100 м  дымка{туман}  10/10 60 м 
[St]
+1.4 +1.1 98 -1  1013.7  0.5  719  288           
00 17.02.13 290 (З) 0700 м  туман  ?/?  
-0.2 -0.4 99 -3  1014.7  0.6  719  290           
03 17.02.13 280 (З) 0800 м  туман  ?/?  
-0.9 -1.1 99 -3  1015.6  0.7  720  291  -0.9         
06 17.02.13 280 (З) 4000 м  слаб. ливневой снег{туман}  10/8 150 м кучево-дожд., средняя 
[Cb calv|Ac und]
-1 -1.5 96 -5  1016.8  721  292  -1         
09 17.02.13 280 (З) >10 км  {ливн. осадки} [диам. гололёда 1 мм]  10/8 180 м кучево-дожд., средняя 
[Cb calv|Ac und]
-0.6 -1.8 91 -4  1017.2  0.5  721  291           
12 17.02.13 280 (З) 10 км  {ливн. осадки}  10/8 270 м кучево-дожд., средняя 
[Cb calv|Ac und]
-0.1 -1.9 88 -3  1016.9  -0.2  721  291           
15 17.02.13 260 (З) 10 км    10/8 400 м кучево-дожд., средняя 
[Cb calv|Ac und]
-0.1 -1.7 89 -2  1017.3  0.4  721  291    +0.2  0.3     
18 17.02.13 270 (З) 10 км  слаб. дождь  10/8 240 м средняя 
[St|Ac und]
+0.3 -1 91 -1  1017.8  0.5  722  291           
21 17.02.13 270 (З) 2000 м  в посл. час снег  10/10 100 м 
[St]
-0.1 -0.6 97 -3  1017.7  0.1  722  291           
00 18.02.13 280 (З) 2000 м  слаб. снег{морось}  10/10 100 м 
[Ns]
-0.9 -1.2 98 -2  1017.7  -0.2  722  292           
03 18.02.13 290 (З) 2000 м  слаб. снег  10/10 100 м 
[Ns]
-1.7 -2 98 -4  1017.8  721  293  -1.7    0.5     
06 18.02.13 250 (З) 2000 м  слаб. снег  10/10 150 м 
[Ns]
-1.1 -1.6 96 -4  1018.4  0.7  722  292  -1.8         
09 18.02.13 260 (З) 10 км  {снег}  10/8 240 м средняя 
[St|Ac und]
+0.5 -0.6 92 -3  1017.9  0.1  722  290           
12 18.02.13 250 (З) >10 км  {снег}  9/9 420 м 
[Sc]
+1.3 -1.7 80 -1  1017.6  0.1  722  290           
15 18.02.13 280 (З) >10 км    10/3 600 м средняя, верхняя 
[Sc|Ac und|Ci fib]
+0.1 -2.3 84 -2  1018.5  0.6  722  291    +1.6  0.0     
18 18.02.13 310 (СЗ) 10 км    10/4 300 м средняя 
[St|Ac und]
-0.4 -1.7 91   0.4  723  292           
21 18.02.13 тихо ()   10 км    10/4 300 м средняя 
[Sc|Ac und]
-0.8 -1.8 93 -1  1019.2  0.1  723  292           
00 19.02.13 тихо ()   10 км  слаб. снег  10/5 300 м средняя 
[Sc diur, vesp|Ac und]
-0.9 -1.7 94 -1  1019.5  0.3  723  292           
03 19.02.13 250 (З) 2000 м  дымка{снег}  8/3 300 м средняя 
[Sc diur, vesp|Ac trans]
-1.9 -2.3 97 -1  1020.1  0.4  723  294  -2.7    0.0     
06 19.02.13 130 (ЮВ) 4000 м  слаб. снег  10/6 600 м средняя 
[Sc|Ac und]
-0.7 -1.4 95 -2  1020.6  0.8  724  292           
09 19.02.13 170 (Ю) 10 км  в посл. час снег  10/5 800 м средняя 
[Sc|Ac und]
+3.1 +0.4 82 +3  1019.7  0.1  724  288           
12 19.02.13 340 (С) >10 км  {ливн. осадки, снег}  8/5 800 м кучево-дожд., средняя 
[Cb cap|Ac As]
+2.4 +0.6 88 +1  1019.5  -0.3  723  289           
15 19.02.13 020 (С) >10 км    10/4 1000 м средняя 
[Sc diur, vesp|Ac und]
+1 -0 93 +2  1020.5  0.6  724  290    +3.1  0.9     
18 19.02.13 130 (ЮВ) 0800 м  туман  ?/?  
+0.7 +0.3 97 +1  1021.2  0.6  724  291           
21 19.02.13 180 (Ю) 0200 м  туман  ?/? 50 
+0.3 -0 98 1020.9  -0.3  724  291           
00 20.02.13 120 (ЮВ) 0200 м    5/0 средняя 
[Ac inh]
-1.7 -2.2 96 -1  1020.9  -0.3  724  294           
03 20.02.13 130 (ЮВ) >10 км  местами туман поземный  3/0 средняя 
[Ac trans]
-1.2 -1.6 97 -2  1020.6  -0.2  724  293  -1.8        замёрзшая 
06 20.02.13 150 (ЮВ) 4000 м  дымка{туман}  6/3 300 м верхняя 
[St|Ci fib]
-0.1 -0.5 97 -2  1020.4  724  292  -2.3         
09 20.02.13 100 (В) 7-10  4000 м  дымка{туман}  10/8 270 м средняя 
[St|Ac und]
+3.2 +1.2 87 1018.7  -0.9  723  288           
12 20.02.13 110 (В) 7-10  >10 км  {туман}  10/8 330 м средняя 
[St|Ac und]
+1.6 -0.6 85 -2  1018  -1  722  289           
15 20.02.13 100 (В) >10 км    10/8 300 м средняя 
[St|Ac und]
+1 -0.5 90 -2  1018.2  722  290    +3.3       
18 20.02.13 080 (В) >10 км  в посл. час морось{туман}  10/6 330 м средняя 
[St|Ac und]
+0.8 +0.1 95 -2  1018.2  -0.9  722  290           
21 20.02.13 090 (В) 10 км    10/6 150 м средняя 
[St|Ac und]
+1 +0.5 96 -1  1017.8  -0.3  722  290           
00 21.02.13 090 (В) 10 км    10/6 150 м средняя 
[St|Ac und]
+1 +0.5 96 -1  1017.8  -0.3  722  290           
03 21.02.13 130 (ЮВ) 0500 м  слаб. дождь{туман}  ?/?  
+1.1 +0.8 98 1020.1  1.1  723  290  +0.7    0.0    влажная 
06 21.02.13 150 (ЮВ) 4000 м  дымка{дождь, туман}  10/10 100 м 
[St]
+1.7 +1.4 98 1021.3  1.3  724  290           
09 21.02.13 190 (Ю) >10 км  в посл. час дождь  10/8 270 м средняя 
[St|Ac und]
+4.1 +2 86 +4  1021.7  0.9  725  287           
12 21.02.13 340 (С) >10 км  в посл. час дождь  10/6 720 м средняя 
[Sc|Ac und]
+4.3 +1.8 84 +3  1021.4  -0.3  725  287           
15 21.02.13 340 (С) 10 км    10/6 630 м средняя 
[Sc|Ac und]
+3.1 +1.5 89 +4  1022.4  0.8  725  289    +4.5     
18 21.02.13 180 (Ю) 10 км  местами туман поземный  6/0 средняя 
[Ac trans]
+0.9 +0.4 96 +2  1023.5  0.6  726  291           
21 21.02.13 240 (ЮЗ) 10 км  местами туман поземный  9/0 средняя 
[Ac trans]
+1.6 +0.3 91 1023.2  -0.2  726  291           
00 22.02.13 250 (З) >10 км    10/3 1000 м средняя 
[Sc|Ac und]
+2.2 -0.8 81 +1  1022.7  -0.4  726  290           
03 22.02.13 260 (З) >10 км    10/4 1000 м средняя 
[Sc|Ac und]
+1.5 -2.2 76 +1  1023.3  0.4  726  291  +0.2        влажная 
06 22.02.13 010 (С) >10 км    10/0 средняя, верхняя 
[Ac trans|Ci fib]
+3.2 -0.8 75 +4  1023.8  0.4  726  289  -0.1         
09 22.02.13 090 (В) >10 км    10/3 600 м средняя 
[Sc|Ac und]
+4.9 +1.7 80 +4  1022.6  -0.8  726  287           
12 22.02.13 070 (В) >10 км    10/6 500 м средняя 
[Sc|Ac und]
+5 +1.3 77 +3  1020.9  -1.6  725  286           
15 22.02.13 060 (СВ) 10 км    10/10 120 м 
[St]
+2 +1.2 94 -1  1020.8  -0.7  724  289    +5.5       
18 22.02.13 080 (В) 10 км    10/10 240 м 
[St]
+1.1 +0 92 -3  1021  724  291           
21 22.02.13 070 (В) 8-11{11}  4000 м  дымка  10/10 100 м 
[St]
+1 +0.4 96 -3  1020.3  -0.8  724  290           
00 23.02.13 090 (В) 0600 м  туман  ?/?  
+1.2 +0.9 98 -3  1019.5  -0.7  723  290           
03 23.02.13 100 (В) 4000 м  дымка{туман}  10/10 100 м 
[St]
+0.8 +0.5 98 -3  1020.1  0.5  723  290  +0.8         
06 23.02.13 090 (В) 7-11{11}  0200 м  туман  ?/?  
+0.4 +0 97 -3  1021.1  0.9  724  291           
09 23.02.13 080 (В) 8-10{12}  0100 м  слаб. переохл. морось (гололёд){туман} [диам. гололёда 1 мм]  ?/?  
-0.4 -0.6 99 -5  1021.7  0.4  724  292           
12 23.02.13 080 (В) 9-10{12}  0100 м  слаб. переохл. морось (гололёд){туман} [диам. гололёда 5 мм]  ?/?  
-0.7 -0.9 99 -5  1021.8  724  293           
15 23.02.13 080 (В) 8-11{12}  0100 м  слаб. переохл. морось (гололёд){туман}  ?/?  
-0.9 -1.1 99 -5  1022.9  1.1  725  293      0.5     
18 23.02.13 080 (В) 9-11{12}  0100 м  слаб. снег{туман, морось} [диам. гололёда 18 мм]  ?/?  
-1 -1.3 98 -6  1024.4  1.4  726  294           
21 23.02.13 080 (В) 8-11{12}  0400 м  слаб. снег{морось} [диам. гололёда 19 мм]  ?/?  
-1.1 -1.4 98 -6  1025.1  0.7  727  294           
00 24.02.13 090 (В) 8-11{12}  0800 м  слаб. снег{морось} [диам. гололёда 19 мм]  ?/?  
-1.4 -1.6 99 -6  1026  0.7  727  295           
03 24.02.13 090 (В) 0900 м  слаб. снег  ?/?  
-1.9 -2.2 98 -6  1026.9  0.8  728  296  -1.9    <0.5  равномерный
сухой снег
100% 
06 24.02.13 090 (В) 10 км  {снег, туман}  10/10 180 м 
[Ns]
-2 -2.3 98 -7  1028.3  1.4  729  296  -2.1         
09 24.02.13 100 (В) 9-11{12}  10 км    10/10 210 м 
[St]
-1.3 -1.7 97 -6  1029.2  730  296           
12 24.02.13 090 (В) 8-10  2000 м    10/10 100 м 
[St]
-1.2 -1.5 98 -6  1030.1  0.8  730  296           
15 24.02.13 090 (В) 4000 м  дымка{туман}  10/10 100 м 
[St]
-2.1 -2.4 98 -6  1031.8  1.4  731  297    -1.1  0.0     
18 24.02.13 090 (В) 6{10}  2500 м  дымка{туман}  10/10 60 м 
[St]
-2.8 -3.1 98 -7  1033.4  1.3  732  298           
21 24.02.13 100 (В) 4000 м  дымка [диам. гололёда 18 мм]  10/10 120 м 
[St]
-2.3 -2.6 98 -6  1033  -0.3  732  298           
00 25.02.13 100 (В) 4000 м  дымка [диам. гололёда 18 мм]  10/10 100 м 
[St]
-1.8 -2.2 97 -5  1032.8  0.1  732  297           
03 25.02.13 090 (В) 0200 м  туман  ?/?  
-2 -2.3 98 -5  1033.8  0.9  733  298  -2.8      <0.5  мокрый или
старый снег
50-90% 
06 25.02.13 100 (В) 0100 м  туман [диам. гололёда 20 мм]  ?/?  
-1.8 -2.1 98 -5  1034.9  1.1  734  298           
09 25.02.13 090 (В) 4000 м  дымка{туман} [диам. гололёда 21 мм]  10/10 150 м 
[St]
-0.6 -0.9 98 -4  1034.8  0.1  734  296           
12 25.02.13 100 (В) 10 км  {туман}  10/8 270 м средняя 
[St|Ac und]
+0.8 +0.3 96 -3  1033.6  -0.9  733  294           
15 25.02.13 120 (ЮВ) 10 км    10/8 240 м средняя 
[St|Ac und]
-0.1 -0.5 97 -4  1033.7  0.1  733  295    +1.1       
18 25.02.13 100 (В) 0300 м  туман  ?/?  
-1.4 -1.7 98 -5  1034.2  0.2  733  297           
21 25.02.13 100 (В) 4000 м  дымка{туман} [диам. гололёда 1 мм]  10/10 100 м 
[St]
-1.5 -1.8 98 -5  1033  -1.2  732  297           
00 26.02.13 120 (ЮВ) 8-10  3000 м  дымка{туман}  10/10 100 м 
[St]
-1.2 -1.5 98 -6  1031.9  -1  731  296           
03 26.02.13 110 (В) 8-10{12}  10 км  [диам. гололёда 1 мм]  10/8 150 м средняя 
[St|Ac und]
-1 -1.6 96 -5  1030.9  -0.8  731  296  -1.6         
06 26.02.13 110 (В) 7-10{11}  3000 м  дымка [диам. гололёда 1 мм]  10/10 100 м 
[St]
-1.4 -1.9 96 -6  1030.9  -0.1  731  296           
09 26.02.13 100 (В) 8-11{11}  10 км    10/10 150 м 
[St]
-1.4 -2.5 92 -6  1029.9  -1  730  296           
12 26.02.13 110 (В) 9-12{13}  >10 км    9/9 270 м 
[St]
+0.6 -3.2 76 -4  1027.6  -1.7  729  293           
15 26.02.13 100 (В) >10 км    10/10 330 м 
[St]
-0.9 -3.2 84 -5  1027.2  -0.8  728  295    +1.1       
18 26.02.13 110 (В) 8-10{12}  >10 км    10/10 360 м 
[St]
-0.6 -2.5 87 -5  1025.7  -1.3  727  294           
21 26.02.13 110 (В) 7{10}  >10 км    10/10 450 м 
[St]
-0.8 -2.7 87 -5  1024  -1.6  726  294           
00 27.02.13 120 (ЮВ) >10 км    10/10 330 м 
[St]
-1.6 -2.4 94 -5  1022.3  -1.8  725  294           
03 27.02.13 120 (ЮВ) >10 км    10/10 300 м 
[St]
-2.3 -2.7 97 -6  1021.1  -1.3  724  294  -2.7        замёрзшая 
06 27.02.13 120 (ЮВ) 7-11{12}  >10 км    10/10 180 м 
[St]
-2.3 -2.7 97 -7  1021.1  -1  723  294           
09 27.02.13 110 (В) >10 км    9/9 500 м 
[Sc]
+4.7 -0.8 67 +2  1017.6  -1  722  286           
12 27.02.13 080 (В) >10 км    5/5 600 м 
[Sc]
+6.1 -0.7 62 +4  1016  -1.2  721  284           
15 27.02.13 080 (В) >10 км    10/10 600 м 
[Sc]
+2.1 -1 80 -1  1017.8  0.9  722  289    +6.8       
18 27.02.13 070 (В) >10 км    10/10 450 м 
[Sc]
+1 -0.4 90 -1  1018.6  0.6  722  290           
21 27.02.13 040 (СВ) 3000 м  дымка  10/10 500 м 
[Sc]
-0.6 -0.9 98 -2  1019.3  0.3  723  292           
00 28.02.13 120 (ЮВ) 0300 м  туман  ?/?  
-0.9 -1.2 98 -3  1019.4  0.1  723  292           
03 28.02.13 120 (ЮВ) 0100 м  переохл. туман  3/3 300 м 
[Sc]
-2.8 -3.1 98 -4  1019.4  -0.4  722  294  -4.3         
06 28.02.13 120 (ЮВ) >10 км  в посл. час туман [диам. сложн. отлож. 3 мм]  3/3 300 м 
[Sc]
-0.4 -0.8 97 -3  1018.9  722  292  -5.8         
09 28.02.13 100 (В) >10 км  [диам. сложн. отлож. 3 мм]  3/3 300 м 
[Sc]
+5 -2.5 58 +3  1017.4  -0.4  722  286           
12 28.02.13 100 (В) >10 км    ясно 
+6.8 -3.9 46 +5  1015  -1.9  721  284           
15 28.02.13 140 (ЮВ) >10 км    3/0 средняя 
[Ac trans]
+2.9 -2.9 66 +2  1015.1  -0.7  720  287    +7       
18 28.02.13 200 (Ю) >10 км    3/0 средняя 
[Ac trans]
+0.4 -2.3 82 1015.7  0.2  720  290           
21 28.02.13 260 (З) >10 км    3/0 средняя 
[Ac trans]
-2.2 -4.5 84 -5  1015.8  -0.5  720  293           
00 01.03.13 280 (З) >10 км    5/0 средняя 
[Ac trans]
+0.6 -3.8 72 -2  1014.6  -0.5  720  290           
03 01.03.13 240 (ЮЗ) >10 км    3/0 средняя 
[Ac trans]
-2.6 -6.3 76 -5  1015.3  720  293  -2.6        замёрзшая 
06 01.03.13 270 (З) >10 км    1/0 средняя 
[Ac trans]
+4.3 -4.9 51 +2  1013.5  -0.4  719  286  -4.1         
09 01.03.13 000 (С) 84  0600 м    1/1 600 м средняя 
[Ac trans]
-6.4   1012  -0.6  719             
12 01.03.13 260 (З) 7-11{13}  >10 км    ясно 
+10.3 -7.2 28 +9  1009.8  -0.6  717  279           
15 01.03.13 280 (З) 5{13}  >10 км    1/0 средняя 
[Ac trans]
+6.9 -3.8 46 +5  1010.2  -0.2  717  282    +10.3       
18 01.03.13 260 (З) >10 км    1/0 средняя 
[Ac trans]
+4.5 -1.2 66 +2  1011.2  0.5  718  285           
21 01.03.13 260 (З) 11-15{15}  >10 км    ясно 
+2.3 -1.7 75 -2  1011.4  -0.3  717  287           
00 02.03.13 270 (З) 10-15{18}  >10 км    ясно 
+2.6 -1 77 -2  1012.2  0.8  718  287           
03 02.03.13 280 (З) >10 км    6/0 средняя 
[Ac trans]
+3 -2.1 69 -1  1012.2  -0.1  718  286  +2.1        влажная 
06 02.03.13 270 (З) 6{13}  >10 км    6/0 средняя, верхняя 
[Ac trans|Ci]
+4 -1.8 66 +1  1012.9  0.9  719  286           
09 02.03.13 260 (З) 8-11{16}  >10 км    8/5 1020 м средняя 
[Sc|Ac trans]
+8.3 -2 48 +6  1012.5  0.4  719  281           
12 02.03.13 280 (З) 8-12{15}  >10 км    8/3 600 м средняя, верхняя 
[Sc|Ac trans|Ci]
+10.2 -5.9 32 +8  1011.2  -1  718  280           
15 02.03.13 290 (З) 4{13}  >10 км    10/3 1000 м средняя 
[Sc|Ac und]
+6.7 -5.4 42 +5  1012.4  0.5  719  283    +10.6       
18 02.03.13 260 (З) >10 км    10/3 1000 м средняя 
[Sc|Ac und]
+3 -5.4 54 +2  1013.7  0.5  719  287           
21 02.03.13 180 (Ю) >10 км    6/0 средняя 
[Ac As]
+2.6 -5.2 56 +1  1012.6  -1.1  718  287           
00 03.03.13 230 (ЮЗ) >10 км    10/4 1000 м средняя 
[Sc|Ac und]
+3.4 -4.7 55 +3  1011.2  -1.1  718  286           
03 03.03.13 310 (СЗ) 10 км  слаб. ливневой дождь  10/8 200 м кучево-дожд., средняя 
[Cb cap|Ac und]
-0.2 -1.3 92 -4  1013.3  1.3  719  290  -0.2    0.0     
06 03.03.13 280 (З) 4000 м  слаб. ливневой снег  10/8 120 м кучево-дожд., средняя 
[Cb cap|Ac und]
-1.3 -1.8 96 -5  1017.1  3.3  721  292  -1.3         
09 03.03.13 260 (З) 7-10  10 км  {ливн. осадки}  9/9 480 м 
[Sc diur, vesp]
+0.7 -2 82 -3  1018.3  1.5  722  290           
12 03.03.13 270 (З) 7-11{13}  >10 км  {ливн. осадки}  8/8 1000 м 
+2.7 -5.2 56 -1  1017.4  -0.5  722  288           
15 03.03.13 290 (З) 4{12}  >10 км    1/0 средняя 
[Ac trans]
+1.5 -5.9 58 -1  1017.7  -0.1  722  290    +3.7  0.0     
18 03.03.13 180 (Ю) >10 км    ясно 
-1.9 -6.7 70 -4  1017.7  -0.6  721  293           
21 03.03.13 210 (ЮЗ) >10 км    ясно 
-2.1 -6.8 70 -3  1016.7  -1  721  293           
00 04.03.13 210 (ЮЗ) >10 км    ясно 
-2.1 -6.4 72 -2  1015.8  -0.8  720  293           
03 04.03.13 010 (С) >10 км    4/0 средняя 
[Ac trans]
-2 -6.2 73 -3  1014.6  -1.2  719  292  -3         
06 04.03.13 100 (В) >10 км    9/0 средняя 
[Ac trans]
+2 -3.9 65 +1  1013.3  -0.4  719  288           
Время (UTC), дата Ветер
(°,м/с) 
Видим.   Явления Облачность Т
(°С)
Тd
(°С)
f(%) Тe
(°С)
Pmin
(гПа)
dP
(гПа)
Po
(мм)
O2
(г/м3)
Тmin Tmax R s Состояние
почвы